Regional Weather Roundup
Issued by NWS

Home | Current Version | Previous Version | Text Only | Print | Product List | Glossary On
Versions: 1 2 3 4 5 6 7 8 9 10 11 12 13 14 15 16 17 18 19 20 21 22 23 24 25 26 27 28 29 30 31 32 33 34 35 36 37 38 39 40 41 42 43 44 45 46 47 48 49 50
000
ASUS43 KLSX 230159
RWRMO

WEATHER SUMMARY FOR MISSOURI
NATIONAL WEATHER SERVICE SPRINGFIELD MO
900 PM CDT FRI AUG 22 2014

NOTE: "FAIR" INDICATES FEW OR NO CLOUDS BELOW 12,000 FEET WITH NO
       SIGNIFICANT WEATHER AND/OR OBSTRUCTIONS TO VISIBILITY.
       CURRENT SKY AND/OR WEATHER CONDITIONS ARE NOT AVAILABLE FOR
       CHILLICOTHE AND FARMINGTON.

MOZ001>031-035>038-043-044-053-054-230300-
...NORTHERN AND WESTERN MISSOURI...

CITY           SKY/WX    TMP DP  RH WIND       PRES   REMARKS
KANSAS CTY INT CLOUDY    82  70  66 CALM      29.91R
KANSAS C DTWN  CLOUDY    85  65  51 W6        29.89R
LEE`S SUMMIT   MOCLDY    79  70  74 SE3       29.90R
ST JOSEPH      CLOUDY    78  76  93 N6        29.91R
KIRKSVILLE     PTCLDY    81  77  88 E5        29.94S

$$
MOZ066>068-077>081-088>096-101>105-230300-
...SOUTHWEST MISSOURI...

CITY           SKY/WX    TMP DP  RH WIND       PRES   REMARKS
SPRINGFIELD    MOCLDY    84  68  58 S9        29.95S
JOPLIN         CLEAR     87  72  60 S10       29.93S HX  93

$$
MOZ032>034-039>042-045>050-055>058-069>072-230300-
...CENTRAL MISSOURI...

CITY           SKY/WX    TMP DP  RH WIND       PRES   REMARKS
COLUMBIA       MOCLDY    85  78  80 E5        29.92S HX  96
JEFFERSON CITY PTCLDY    83  76  79 CALM      29.89S HX  91
ROLLA          PTCLDY    84  67  56 S7        29.93R
SEDALIA        MOCLDY    82  77  84 CALM      29.91F HX  90
OSAGE BEACH    CLEAR     84  73  70 CALM      29.92S HX  91

$$
MOZ051-052-059>065-230300-
...EAST CENTRAL MISSOURI...

CITY           SKY/WX    TMP DP  RH WIND       PRES   REMARKS
ST LOUIS INTL  MOCLDY    87  76  69 E3        29.93R HX  97
SPIRIT OF STL  MOCLDY    81  78  91 CALM      29.91R
ST CHARLES     PTCLDY    81  78  91 E5        29.91R

$$
MOZ072>076-082>087-097>100-106>115-230300-
...SOUTH CENTRAL AND SOUTHEAST MISSOURI...

CITY           SKY/WX    TMP DP  RH WIND       PRES   REMARKS
CAPE GIRARDEAU PTCLDY    83  76  79 S6        29.95R HX  91
FARMINGTON     PTCLDY    82  72  69 S6        29.98R
POPLAR BLUFF   PTCLDY    84  75  74 S3        29.94R HX  92
WEST PLAINS    CLEAR     82  70  66 CALM      29.99S

$$


USA.gov is the U.S. government's official web portal to all federal, state and local government web resources and services.